Location: Newark
(32.2500°S, 148.6000°E)
Time: 20:59:35
(UTC+00:00)

LightSail 2 - Visible Passes

Search period start: 18 October 2019 00:00
Search period end: 28 October 2019 00:00
Orbit: 707 x 722 km, 24.0° (Epoch: 18 October)

Date Brightness Start Highest point End Pass type
(mag) Time Alt. Az. Time Alt. Az. Time Alt. Az.
18 Oct 7.5 16:49:29 14° NE 16:49:29 14° NE 16:50:39 10° ENE visible
18 Oct 6.3 18:28:28 14° NW 18:32:11 31° N 18:36:42 10° ENE visible
19 Oct 6.3 17:34:21 28° N 17:34:43 28° N 17:39:07 10° ENE visible
20 Oct 7.4 16:40:12 15° NE 16:40:12 15° NE 16:41:27 10° ENE visible
20 Oct 6.1 18:19:12 18° NW 18:22:22 33° N 18:27:00 10° ENE visible
21 Oct 6.1 17:25:04 32° N 17:25:04 32° N 17:29:29 10° ENE visible
22 Oct 7.5 16:30:57 14° ENE 16:30:57 14° ENE 16:31:54 10° ENE visible
22 Oct 6.1 18:09:57 21° NW 18:12:31 32° N 18:17:08 10° ENE visible
23 Oct 6.2 17:15:52 31° NNE 17:15:52 31° NNE 17:19:40 10° ENE visible
24 Oct 7.7 16:21:50 11° ENE 16:21:50 11° ENE 16:22:08 10° ENE visible
24 Oct 6.2 18:00:50 23° NW 18:02:37 28° N 18:07:03 10° NE visible
25 Oct 6.6 17:06:52 25° NNE 17:06:52 25° NNE 17:09:40 10° NE visible
25 Oct 6.8 18:46:34 10° WNW 18:50:09 19° NNW 18:53:44 10° NNE visible
26 Oct 6.4 17:51:58 22° NNW 17:52:39 23° NNW 17:56:41 10° NE visible
27 Oct 7.2 16:58:09 16° NE 16:58:09 16° NE 16:59:27 10° NE visible
27 Oct 7.1 18:37:51 10° NW 18:40:06 13° NNW 18:42:21 10° N visible
